This is the latest recevied weather packets stored in our database for station/object KBTL-WX. If no packets are shown the sender has not sent any weather packets the latest 10 day(s).
| Time | Temp. | Humidity | Pressure | Rain* | Wind** | Luminosity | Snow |
|---|---|---|---|---|---|---|---|
| 1777215635 | 10° C | 86% | 986.1 hPa | 0 mm | - | - | - |
| 1777214714 | 10° C | 87% | 984.7 hPa | 0 mm | - | - | - |
| 1777213826 | 9.44° C | 86% | 985.9 hPa | 0 mm | - | - | - |
| 1777212914 | 8.89° C | 86% | 985.9 hPa | 0 mm | - | - | - |
| 1777212038 | 8.89° C | 86% | 985.9 hPa | 0 mm | - | - | - |
| 1777211114 | 8.89° C | 87% | 984.9 hPa | 0 mm | - | - | - |
| 1777210226 | 8.89° C | 87% | 984.9 hPa | 0 mm | - | - | - |
| 1777209314 | 8.89° C | 87% | 984.9 hPa | 0 mm | - | - | - |
| 1777208431 | 8.33° C | 87% | 984.9 hPa | 0 mm | - | - | - |
| 1777207513 | 8.33° C | 90% | 984.4 hPa | 0 mm | - | - | - |
| 1777206629 | 8.33° C | 88% | 985.5 hPa | 0 mm | - | - | - |
| 1777205713 | 7.78° C | 88% | 985.4 hPa | 0 mm | - | - | - |
| 1777204835 | 7.78° C | 88% | 985.4 hPa | 0 mm | - | - | - |
| 1777203913 | 7.22° C | 88% | 985.6 hPa | 0 mm | - | - | - |
| 1777203029 | 7.22° C | 90% | 985.5 hPa | 0 mm | - | - | - |
| 1777202113 | 7.78° C | 90% | 985.5 hPa | 0 mm | - | - | - |
| 1777201234 | 7.78° C | 90% | 985.5 hPa | 0 mm | - | - | - |
| 1777200313 | 7.78° C | 89% | 985.1 hPa | 0 mm | - | - | - |
| 1777199428 | 7.22° C | 91% | 985.3 hPa | 0 mm | - | - | - |
| 1777198513 | 7.22° C | 91% | 985.3 hPa | 0 mm | - | - | - |
| 1777197637 | 7.22° C | 91% | 985.3 hPa | 0 mm | - | - | - |
| 1777196713 | 7.78° C | 88% | 984.3 hPa | 0 mm | - | - | - |
| 1777195830 | 7.78° C | 92% | 984.5 hPa | 0 mm | - | - | - |
| 1777194914 | 6.67° C | 92% | 984.4 hPa | 0 mm | - | - | - |
| 1777194033 | 7.22° C | 92% | 984.4 hPa | 0 mm | - | - | - |
* Rain latest hour (hover to see other rain measurements)
** Current wind speed in m/s (hover to see current wind gust speed)